• In Italy
  • List of Countries
  • For 7 days
  • Water Temperature
  • Satellite Maps
  • Weather Map
  • Weather Widgets
  • user-avatar
    Login

    Hourly Weather Zverevo

    Today, 28 May, Monday

    Time Temperature Precipitation Wind Pressure Humidity
    00:00 +8°C° 0.2 mm 4 mps 746 mmHg 89%
    01:00 +7°C° 0 mm 5 mps 747 mmHg 88%
    02:00 +6°C° 0 mm 5 mps 747 mmHg 88%
    03:00 +5°C° 0 mm 5 mps 748 mmHg 87%
    04:00 +5°C° 0 mm 5 mps 748 mmHg 83%
    05:00 +5°C° 0 mm 6 mps 749 mmHg 79%
    06:00 +5°C° 0 mm 6 mps 749 mmHg 75%
    07:00 +6°C° 0 mm 7 mps 750 mmHg 67%
    08:00 +8°C° 0 mm 7 mps 750 mmHg 59%
    09:00 +8°C° 0 mm 7 mps 750 mmHg 51%
    10:00 +8°C° 0 mm 7 mps 751 mmHg 50%
    11:00 +9°C° 0 mm 7 mps 751 mmHg 49%
    12:00 +9°C° 0 mm 8 mps 752 mmHg 48%
    13:00 +9°C° 0 mm 7 mps 752 mmHg 48%
    14:00 +9°C° 0 mm 7 mps 752 mmHg 48%
    15:00 +9°C° 0 mm 7 mps 752 mmHg 49%
    16:00 +8°C° 0 mm 6 mps 752 mmHg 50%
    17:00 +8°C° 0 mm 6 mps 753 mmHg 52%
    18:00 +8°C° 0 mm 5 mps 753 mmHg 53%
    19:00 +7°C° 0 mm 4 mps 753 mmHg 57%
    20:00 +5°C° 0 mm 4 mps 753 mmHg 61%
    21:00 +4°C° 0 mm 3 mps 754 mmHg 65%
    22:00 +3°C° 0 mm 3 mps 754 mmHg 67%
    23:00 +3°C° 0 mm 3 mps 754 mmHg 68%

    Tomorrow, 29 May, Tuesday

    Time Temperature Precipitation Wind Pressure Humidity
    00:00 +3°C° 0 mm 2 mps 754 mmHg 70%
    01:00 +3°C° 0 mm 2 mps 754 mmHg 71%
    02:00 +2°C° 0 mm 3 mps 754 mmHg 72%
    03:00 +1°C° 0 mm 3 mps 754 mmHg 74%
    04:00 +3°C° 0 mm 3 mps 754 mmHg 71%
    05:00 +4°C° 0 mm 4 mps 753 mmHg 68%
    06:00 +6°C° 0 mm 4 mps 753 mmHg 65%
    07:00 +7°C° 0.1 mm 5 mps 752 mmHg 66%
    08:00 +7°C° 0.1 mm 5 mps 751 mmHg 68%
    09:00 +8°C° 0.1 mm 6 mps 751 mmHg 69%
    10:00 +10°C° 0 mm 7 mps 750 mmHg 66%
    11:00 +12°C° 0 mm 7 mps 749 mmHg 63%
    12:00 +13°C° 0 mm 8 mps 749 mmHg 60%
    13:00 +15°C° 0.1 mm 8 mps 748 mmHg 60%
    14:00 +16°C° 0.1 mm 7 mps 748 mmHg 60%
    15:00 +17°C° 0.1 mm 7 mps 748 mmHg 60%
    16:00 +16°C° 0.3 mm 6 mps 747 mmHg 65%
    17:00 +15°C° 0.3 mm 6 mps 747 mmHg 70%
    18:00 +14°C° 0.3 mm 5 mps 747 mmHg 76%
    19:00 +13°C° 0.1 mm 4 mps 747 mmHg 80%
    20:00 +12°C° 0.1 mm 4 mps 747 mmHg 84%
    21:00 +11°C° 0.1 mm 3 mps 747 mmHg 88%
    22:00 +11°C° 0.1 mm 3 mps 746 mmHg 88%
    23:00 +11°C° 0.1 mm 3 mps 746 mmHg 89%

    Day after tomorrow, 30 May, Wednesday

    Time Temperature Precipitation Wind Pressure Humidity
    00:00 +11°C° 0.1 mm 3 mps 745 mmHg 89%
    01:00 +11°C° 0.1 mm 3 mps 744 mmHg 88%
    02:00 +11°C° 0.1 mm 4 mps 744 mmHg 86%
    03:00 +10°C° 0.1 mm 5 mps 743 mmHg 85%
    04:00 +12°C° 0 mm 5 mps 742 mmHg 82%
    05:00 +11°C° 0 mm 6 mps 741 mmHg 80%
    06:00 +13°C° 0 mm 6 mps 741 mmHg 77%
    07:00 +15°C° 0 mm 6 mps 740 mmHg 71%
    08:00 +16°C° 0 mm 7 mps 740 mmHg 66%
    09:00 +18°C° 0 mm 7 mps 739 mmHg 60%
    10:00 +20°C° 0 mm 7 mps 738 mmHg 56%
    11:00 +21°C° 0 mm 8 mps 738 mmHg 53%
    12:00 +22°C° 0 mm 8 mps 737 mmHg 49%
    13:00 +22°C° 0 mm 7 mps 737 mmHg 50%
    14:00 +23°C° 0 mm 7 mps 736 mmHg 51%
    15:00 +23°C° 0 mm 7 mps 736 mmHg 51%
    16:00 +22°C° 0.1 mm 7 mps 736 mmHg 56%
    17:00 +21°C° 0.1 mm 6 mps 735 mmHg 60%
    18:00 +19°C° 0.1 mm 6 mps 735 mmHg 65%
    19:00 +16°C° 0.5 mm 5 mps 735 mmHg 72%
    20:00 +14°C° 0.5 mm 4 mps 735 mmHg 80%
    21:00 +12°C° 0.5 mm 3 mps 735 mmHg 88%
    22:00 +11°C° 0.1 mm 4 mps 735 mmHg 87%
    23:00 +10°C° 0.1 mm 4 mps 736 mmHg 87%

    31 May, Thursday

    Time Temperature Precipitation Wind Pressure Humidity
    00:00 +10°C° 0.1 mm 4 mps 736 mmHg 87%
    01:00 +8°C° 0 mm 4 mps 736 mmHg 87%
    02:00 +6°C° 0 mm 4 mps 737 mmHg 87%
    03:00 +5°C° 0 mm 4 mps 737 mmHg 88%
    04:00 +5°C° 0 mm 5 mps 738 mmHg 84%
    05:00 +6°C° 0 mm 5 mps 738 mmHg 80%
    06:00 +5°C° 0 mm 6 mps 739 mmHg 76%
    07:00 +7°C° 0 mm 6 mps 739 mmHg 71%
    08:00 +8°C° 0 mm 6 mps 740 mmHg 66%
    09:00 +8°C° 0 mm 6 mps 740 mmHg 62%
    10:00 +9°C° 0 mm 6 mps 740 mmHg 60%
    11:00 +9°C° 0 mm 6 mps 741 mmHg 59%
    12:00 +9°C° 0 mm 6 mps 741 mmHg 57%
    13:00 +9°C° 0 mm 6 mps 741 mmHg 57%
    14:00 +9°C° 0 mm 6 mps 742 mmHg 56%
    15:00 +9°C° 0 mm 5 mps 742 mmHg 55%
    16:00 +9°C° 0 mm 5 mps 742 mmHg 55%
    17:00 +10°C° 0 mm 4 mps 743 mmHg 56%
    18:00 +10°C° 0 mm 4 mps 743 mmHg 57%
    19:00 +9°C° 0 mm 3 mps 744 mmHg 59%
    20:00 +7°C° 0 mm 3 mps 744 mmHg 62%
    21:00 +6°C° 0 mm 2 mps 745 mmHg 64%
    22:00 +5°C° 0 mm 2 mps 745 mmHg 66%
    23:00 +4°C° 0 mm 2 mps 746 mmHg 69%

    1 June, Friday

    Time Temperature Precipitation Wind Pressure Humidity
    00:00 +3°C° 0 mm 2 mps 746 mmHg 71%
    01:00 +3°C° 0 mm 2 mps 746 mmHg 72%
    02:00 +2°C° 0 mm 2 mps 747 mmHg 72%
    03:00 +2°C° 0 mm 2 mps 747 mmHg 73%
    04:00 +3°C° 0 mm 2 mps 748 mmHg 70%
    05:00 +4°C° 0 mm 2 mps 748 mmHg 67%
    06:00 +5°C° 0 mm 2 mps 748 mmHg 63%
    07:00 +7°C° 0 mm 3 mps 749 mmHg 58%
    08:00 +8°C° 0 mm 3 mps 749 mmHg 53%
    09:00 +10°C° 0 mm 3 mps 749 mmHg 47%
    10:00 +10°C° 0 mm 3 mps 749 mmHg 48%
    11:00 +10°C° 0 mm 3 mps 750 mmHg 48%
    12:00 +10°C° 0 mm 3 mps 750 mmHg 48%
    13:00 +10°C° 0 mm 3 mps 750 mmHg 48%
    14:00 +10°C° 0 mm 3 mps 750 mmHg 48%
    15:00 +10°C° 0 mm 3 mps 750 mmHg 47%
    16:00 +10°C° 0 mm 3 mps 750 mmHg 50%
    17:00 +10°C° 0 mm 3 mps 750 mmHg 52%
    18:00 +9°C° 0 mm 3 mps 750 mmHg 54%
    19:00 +8°C° 0 mm 2 mps 751 mmHg 58%
    20:00 +6°C° 0 mm 2 mps 751 mmHg 62%
    21:00 +4°C° 0 mm 2 mps 751 mmHg 66%
    22:00 +4°C° 0 mm 2 mps 752 mmHg 67%
    23:00 +3°C° 0 mm 2 mps 752 mmHg 69%

    2 June, Saturday

    Time Temperature Precipitation Wind Pressure Humidity
    00:00 +3°C° 0 mm 1 mps 752 mmHg 70%
    01:00 +2°C° 0 mm 2 mps 752 mmHg 72%
    02:00 +1°C° 0 mm 2 mps 753 mmHg 73%
    03:00 +1°C° 0 mm 2 mps 753 mmHg 75%
    04:00 +2°C° 0 mm 2 mps 753 mmHg 70%
    05:00 +4°C° 0 mm 2 mps 753 mmHg 66%
    06:00 +5°C° 0 mm 2 mps 754 mmHg 62%
    07:00 +7°C° 0 mm 3 mps 754 mmHg 56%
    08:00 +8°C° 0 mm 3 mps 754 mmHg 51%
    09:00 +10°C° 0 mm 3 mps 754 mmHg 45%
    10:00 +10°C° 0 mm 3 mps 754 mmHg 44%
    11:00 +11°C° 0 mm 3 mps 754 mmHg 43%
    12:00 +12°C° 0 mm 3 mps 753 mmHg 42%
    13:00 +13°C° 0 mm 3 mps 753 mmHg 42%
    14:00 +13°C° 0 mm 3 mps 753 mmHg 43%
    15:00 +14°C° 0 mm 3 mps 752 mmHg 44%
    16:00 +15°C° 0 mm 2 mps 752 mmHg 48%
    17:00 +14°C° 0 mm 2 mps 752 mmHg 51%
    18:00 +14°C° 0 mm 1 mps 752 mmHg 55%
    19:00 +12°C° 0 mm 1 mps 752 mmHg 60%
    20:00 +10°C° 0 mm 1 mps 752 mmHg 65%
    21:00 +9°C° 0 mm 1 mps 752 mmHg 70%
    22:00 +7°C° 0 mm 2 mps 752 mmHg 72%
    23:00 +7°C° 0 mm 2 mps 752 mmHg 73%
    Show more